Regional Weather Roundup
Issued by NWS New Orleans/Baton Rouge, LA

Home | Current Version | Previous Version | Text Only | Print | Product List | Glossary On
Versions: 1 2 3 4 5 6 7 8 9 10 11 12 13 14 15 16 17 18 19 20 21 22 23 24 25 26 27 28 29 30 31 32 33 34 35 36 37 38 39 40 41 42 43 44 45 46 47 48 49 50
000
ASUS44 KLIX 262313
RWRLIX
NEW ORLEANS REGIONAL WEATHER ROUNDUP
NATIONAL WEATHER SERVICE NEW ORLEANS LA
600 PM CDT WED APR 26 2017

NOTE: "FAIR" INDICATES FEW OR NO CLOUDS BELOW 12,000 FEET WITH NO
      SIGNIFICANT WEATHER AND/OR OBSTRUCTIONS TO VISIBILITY.
      SKY/WX - SKY CONDITION AND SIGNIFICANT WEATHER.
      TMP - AIR TEMPERATURE.     DP    - DEWPOINT TEMPERATURE.
      RH  - RELATIVE HUMIDITY.   PRES  - PRESSURE.
      HI  - HEAT INDEX.          WCI   - WIND CHILL INDEX.

*  THESE STATIONS ARE NOT NWS OR FAA STATIONS AND ARE NOT UNDER
   NWS QUALITY CONTROL.

LAZ038-040-048-061>063-065>067-069-270000-
SOUTHEAST LOUISIANA

CITY           SKY/WX    TMP DP  RH WIND       PRES   REMARKS
N.O. INTL ARPT PTSUNNY   78  72  81 SE13      29.64F
N.O. LAKEFRONT CLOUDY    80  72  76 SE15      29.65F
N.O. DOWNTOWN*   N/A     80  72  76 S10G21      N/A
RESERVE*       NOT AVBL
SLIDELL        CLOUDY    77  71  82 SE13      29.66F
BATON ROUGE    MOSUNNY   83  69  62 S20G30    29.56F
BOOTHVILLE     CLOUDY    78  74  87 S12G20    29.68F
BELLE CHASSE   PTSUNNY   77  73  87 S13       29.65S
BOGALUSA*      NOT AVBL
GALLIANO*      CLOUDY    80  71  75 S13G18    29.64F
NEW ROADS*       N/A     82  70  66 S13G20    29.56F
GONZALES*        N/A     82  71  67 S13G20    29.59F
HAMMOND*       CLOUDY    79  68  69 SE15      29.62F
HOUMA*         PTSUNNY   79  73  83 S15       29.63F
PORT FOURCHON* PTCLDY    79  73  83 S13G20    29.65S HAZE

$$

MSZ070-080>082-270000-
SOUTHERN MISSISSIPPI

CITY           SKY/WX    TMP DP  RH WIND       PRES   REMARKS
MCCOMB         PTSUNNY   78  67  68 S17G30    29.59F
GULFPORT       CLOUDY    76  70  82 SE17      29.68F
BILOXI         CLOUDY    75  70  83 SE15      29.69F
PASCAGOULA     CLOUDY    75  67  76 SE13      29.72S
STENNIS ARPT*  CLOUDY    73  66  78 SE7       29.69F

$$

COASTAL OBSERVATIONS
LAKE AND NEARSHORE STATIONS

STATION/POSITION TIME  TEMP    WIND        PRES    WAVE
                       AIR SEA DIR/SP/G            HT/PER
                 (UTC) (F)     (DEG/KT/KT) (MB)    (FT/S)
PASCAGOULA       2242   75     120/ 11/ 16 1005.9
WAVELAND YACHT   2242   74 74  150/ 15/ 19 1004.7
GRAND ISLE       2242   77 74  160/  9/ 13 1003.7
SOUTHWEST PASS   2236          150/  7/ 10   N/A
NEW CANAL        2242   80 75  170/  9/ 13 1003.9
SHELL BEACH      2242   75 75  140/ 11/ 15 1004.6

OFFSHORE STATIONS

STATION/POSITION TIME  TEMP    WIND        PRES    WAVE
                       AIR SEA DIR/SP/G            HT/PER
                 (UTC) (F)     (DEG/KT/KT) (MB)    (FT/S)
64 S DAUPHIN ISL 2250   75 75  130/ 16/ 19 1006.0

$$




USA.gov is the U.S. government's official web portal to all federal, state and local government web resources and services.